Élőkép

Információk

Albatrosz Repülő Egyesület
8000 Székesfehérvár,
Radványi utca 6.

Adószám:
19092908-2-07

Bankszámla szám:
Budapest Bank
10102952-01361819-00000001

Telefon: +36 30 9598-897

Telephey: Börgönd repülőtér

Börgöndi repülõtér

LHBP METAR/TAF

[source: ADDS]
METAR
TAF LHBP 050500Z 0506/0606 VRB03KT CAVOK BECMG 0507/0509 32007KT BECMG 0516/0518 VRB03KT TAF
TAF LHBP 050500Z 0506/0606 VRB03KT CAVOK BECMG 0507/0509 32007KT BECMG 0516/0518 VRB03KT =
SR / SS: 02:59 / 18:45 UTC (Börgönd 2015-07-05)
Hungarian Chinese (Simplified) Croatian Czech English Finnish French German Hebrew Italian Japanese Polish Portuguese Romanian Russian Serbian Slovak Slovenian Spanish

Belépés tagoknak